FENGYUN 1C DEB, 30128

Orbit data source: Space-Track

FENGYUN 1C DEB, 30128 is space debris in SSO originally from a launch on Mon, 10 May 1999 UTC launched from the Taiyaun Space Center, China (TSC). Fengyun 1C debris stems from the Chinese weather satellite Fengyun-1C, which was intentionally destroyed by a Chinese anti-satellite missile in 2007. This event dramatically increased the amount of space debris, with thousands of trackable fragments posing hazards to satellites and human spaceflight. The Fengyun 1C debris cloud has become a focal point in discussions about space sustainability and the need for international regulations to prevent the creation of new debris.

Loading next visibility...
Identifier
30128, 1999-025SH
Orbit
SSO
Country
Flag of CNCN / PRC
Related business
Manufacturer
Unknown
Mission
Spacecraft
Bus & Motor
Unknown
Mass
Unknown
Launch date (UTC)
1999-05-10 (27 years ago)
Launch vehicle
Unknown
Launch site
Taiyaun Space Center, China (TSC)
Object type
Payload
Rocket body
Debris
Shape & HBR
Unknown shape, 0.1 m
Radar Cross Section
Small (<0.1 m²)

Expand to show TLE details & history
Last TLE update: 1 day ago

TLE from 1 day ago
0 FENGYUN 1C DEB
1 30128U 99025SH  25312.26281275  .00015042  00000-0  40033-2 0  9999
2 30128  96.9809 317.0959 0107668 233.5385 256.6284 14.45161391968133
Epoch: 2025-11-08T06:18Z
TLE epoch observation values (Epoch: 2025-11-08T06:18:27.021Z)
Latitude
50.60745°
Longitude
3.31758°
Altitude
768.135 km
Speed
7.465 km/s
True Right ascension
09h 42m 30s
True Declination
50° 26' 20"
Sunlit
Object was in daylight at epoch
Visualization orbit readout
Latitude
Unknown
Longitude
Unknown
Altitude
Unknown
Speed
Unknown
Apparent Right ascension
Unknown
Apparent Declination
Unknown
Sunlit
N/A
Visualization observer readout
Local Sidereal Time
13:26:17
Azimuth
Unknown
Elevation
Unknown
Doppler factor
Unknown
Orbital elements
Apogee altitude
815.169 km
Perigee altitude
661.921 km
Semi-major axis
7,116.682 km
Eccentricity
0.01077
Inclination
96.9809°
RAAN
317.0959°
Arg. of periapsis
233.5385°
True anomaly
255.43187°
Mean anomaly
256.6284°
Eccentric anomaly
256.02975°
Mean motion
3.61515 °/min
Orbital period
99.58 mins
BSTAR
0.0040033
Loading maneuver chart data...
Computing Atmospheric mass density...

Documentation

Showing up to 5 results
|